This is the latest recevied weather packets stored in our database for station/object NO9B. If no packets are shown the sender has not sent any weather packets the latest 10 day(s).
| Time | Temp. | Humidity | Pressure | Rain* | Wind** | Luminosity | Snow |
|---|---|---|---|---|---|---|---|
| 1787773037 | 28.89° C | 54% | 1012.9 hPa | 0 mm | - | 552 W/m² | - |
| 1787772732 | 28.33° C | 59% | 1012.9 hPa | 0 mm | - | 566 W/m² | - |
| 1787772430 | 28.33° C | 56% | 1013 hPa | 0 mm | - | 582 W/m² | - |
| 1787772130 | 28.33° C | 57% | 1012.8 hPa | 0 mm | - | 513 W/m² | - |
| 1787771829 | 28.33° C | 57% | 1012.8 hPa | 0 mm | - | 133 W/m² | - |
| 1787771529 | 27.78° C | 59% | 1012.8 hPa | 0 mm | - | 111 W/m² | - |
| 1787771223 | 28.33° C | 55% | 1012.7 hPa | 0 mm | - | 635 W/m² | - |
| 1787770918 | 28.33° C | 57% | 1012.8 hPa | 0 mm | - | 595 W/m² | - |
| 1787770616 | 28.89° C | 58% | 1012.9 hPa | 0 mm | - | 607 W/m² | - |
| 1787770311 | 28.89° C | 56% | 1012.9 hPa | 0 mm | - | 589 W/m² | - |
| 1787770010 | 28.33° C | 61% | 1012.9 hPa | 0 mm | - | 265 W/m² | - |
| 1787769705 | 28.33° C | 55% | 1012.9 hPa | 0 mm | - | 604 W/m² | - |
| 1787769404 | 28.89° C | 57% | 1012.9 hPa | 0 mm | - | 72 W/m² | - |
| 1787769099 | 28.89° C | 55% | 1013 hPa | 0 mm | - | 607 W/m² | - |
| 1787768794 | 28.89° C | 57% | 1013 hPa | 0 mm | - | 621 W/m² | - |
| 1787768490 | 27.78° C | 61% | 1013.2 hPa | 0 mm | - | 610 W/m² | - |
| 1787768186 | 27.78° C | 59% | 1012.9 hPa | 0 mm | - | 615 W/m² | - |
| 1787767881 | 28.33° C | 58% | 1013 hPa | 0 mm | - | 84 W/m² | - |
| 1787767577 | 28.33° C | 62% | 1013.1 hPa | 0 mm | - | 528 W/m² | - |
| 1787767276 | 27.78° C | 61% | 1012.9 hPa | 0 mm | - | 625 W/m² | - |
| 1787766975 | 27.78° C | 60% | 1013 hPa | 0 mm | - | 606 W/m² | - |
| 1787766669 | 27.78° C | 59% | 1012.9 hPa | 0 mm | - | 633 W/m² | - |
| 1787766368 | 27.78° C | 61% | 1013 hPa | 0 mm | - | 619 W/m² | - |
| 1787766067 | 28.33° C | 59% | 1013 hPa | 0 mm | - | 632 W/m² | - |
| 1787765764 | 27.78° C | 62% | 1013.1 hPa | 0 mm | - | 645 W/m² | - |
* Rain latest hour (hover to see other rain measurements)
** Current wind speed in m/s (hover to see current wind gust speed)